Tracking 29782 objects as of 13-Oct-2024
HD Live streaming from Space Station
objects crossing your sky now

ONEWEB-0644

Track ONEWEB-0644 now!
10-day predictions
ONEWEB-0644 is classified as:


NORAD ID: 55808
Int'l Code: 2023-029N
Perigee: 1,191.2 km
Apogee: 1,194.6 km
Inclination: 87.9 °
Period: 109.1 minutes
Semi major axis: 7563 km
RCS: Unknown
Launch date: March 9, 2023
Source: United Kingdom (UK)
Launch site: AIR FORCE EASTERN TEST RANGE (AFETR)
Your satellite tracking list
Your tracking list is empty




NASA's NSSDC Master Catalog

Two Line Element Set (TLE):
1 55808U 23029N   24286.41802025  .00000265  00000-0  62901-3 0  9990
2 55808  87.9146  66.8457 0002296  93.4446 266.6950 13.19724377 78089
Source of the keplerian elements: AFSPC